MB7UKB-10 Weather Reports


Display with metric or nautical units.
time (UTC)temp
F
wind
direction
speed
MPH
gust
MPH
rain 1hr
in
rain 24hr
in
rain mn
in
humidity
%
barometer
mb
20260506042009 47 80 2.0 3.0 0.00 0.00 0.00 76 1013.1
20260506035008 47 297 2.0 3.0 0.00 0.00 0.00 75 1013.0
20260506032009 48 126 2.0 3.0 0.00 0.00 0.00 77 1013.1
20260506025009 48 123 1.0 2.0 0.00 0.00 0.00 77 1013.2
20260506022009 49 355 3.0 4.0 0.00 0.00 0.00 76 1013.1
20260506015009 49 37 2.0 4.0 0.00 0.00 0.00 77 1013.4
20260506012008 49 299 0.0 2.0 0.00 0.00 0.00 77 1013.2
20260506005009 50 241 0.0 7.0 0.00 0.00 0.00 75 1013.2
20260506002008 50 240 0.0 3.0 0.00 0.00 0.00 75 1013.2
20260505235008 51 227 1.0 4.0 0.00 0.00 0.00 72 1013.2
20260505232009 52 170 0.0 4.0 0.00 0.00 0.00 70 1013.4
20260505225008 52 252 2.0 5.0 0.00 0.00 0.00 69 1013.2
20260505222009 53 265 2.0 4.0 0.00 0.00 0.00 68 1013.2
20260505215008 54 245 2.0 5.0 0.00 0.00 0.00 66 1012.9
20260505212008 54 337 3.0 4.0 0.00 0.00 0.00 65 1012.7
20260505205008 55 153 3.0 5.0 0.00 0.00 0.00 69 1012.8
20260505202008 56 315 1.0 4.0 0.00 0.00 0.00 66 1012.4
20260505195008 57 231 1.0 3.0 0.00 0.00 0.00 64 1012.1
20260505192008 57 61 2.0 2.0 0.00 0.00 0.00 62 1011.8
20260505185008 58 117 0.0 3.0 0.00 0.00 0.00 61 1011.9
20260505182008 59 136 0.0 3.0 0.00 0.00 0.00 59 1011.7
20260505175009 60 134 2.0 4.0 0.00 0.00 0.00 57 1011.6
20260505172008 60 224 2.0 4.0 0.00 0.00 0.00 55 1011.8
20260505165008 60 265 3.0 3.0 0.00 0.00 0.00 56 1011.9
20260505162008 60 224 0.0 3.0 0.00 0.00 0.00 58 1011.8
20260505152009 60 291 0.0 4.0 0.00 0.00 0.00 57 1012.0
20260505125009 61 30 0.0 2.0 0.00 0.00 0.00 53 1012.5
20260505122009 61 163 2.0 3.0 0.00 0.00 0.00 53 1012.5
20260505115008 62 146 0.0 3.0 0.00 0.00 0.00 54 1012.7
20260505112009 60 117 2.0 3.0 0.00 0.00 0.00 58 1012.8
20260505102009 57 140 2.0 2.0 0.00 0.00 0.00 67 1013.2
20260505095009 56 293 2.0 3.0 0.00 0.00 0.00 69 1013.3
20260505092008 55 200 2.0 4.0 0.00 0.00 0.00 73 1013.2
20260505085009 55 122 2.0 4.0 0.00 0.00 0.00 74 1013.5
20260505082009 54 150 0.0 3.0 0.00 0.00 0.00 80 1013.5
20260505075008 53 162 0.0 2.0 0.00 0.00 0.00 81 1013.5
20260505065008 53 96 1.0 3.0 0.00 0.00 0.00 83 1013.9
20260505062008 51 146 1.0 2.0 0.00 0.00 0.00 85 1013.7
20260505055008 51 196 2.0 2.0 0.00 0.00 0.00 86 1013.8
20260505052009 51 153 2.0 2.0 0.00 0.00 0.00 86 1013.8